[[{"header":{"parameterUnit":"m.s-1","parameterCategory":1,"la1":30.2991,"la2":30.254,"lo1":-89.0895,"lo2":-89.0444,"dy":0.0017,"dx":0.0017,"nx":28,"ny":28,"refTime":"2023-07-27T03:00:00:Z","depth":0,"parameterNumber":2,"parameterNumberName":"U-component_of_WINDS"},"data":[0,0,0,0,0,0,0,0,0,0,0,0,0,0,0,0,0,0,0,0,0,0,0,0,0,0,0,0,0,0,0,0,0,0,0,0,0,0,0,0,0,0,0,0,0,0,0,0,0,0,0,0,0,0,0,0,0,0,0.9053,0.9054,0,0.9104,0.9105,0.9105,0.9092,0.9091,0.909,0.9089,0.9142,0.9144,0.9147,0,0,0,0,0,0,0,0,0,0,0,0,0,0.8946,0.8948,0.9053,0.9054,0.9055,0.9104,0.9105,0.9106,0.9092,0.9091,0.909,0.9089,0.9141,0.9144,0.9147,0,0,0,0,0,0,0,0,0,0,0,0,0,0.8994,0.8948,0.9053,0.9054,0.9055,0.9104,0.9105,0.9106,0.9093,0.9091,0.909,0.9088,0.914,0.9144,0.9147,0.9199,0,0,0.9158,0.9159,0,0,0,0,0,0,0,0,0.8991,0.8998,0.9053,0.9054,0.9055,0.909,0.9086,0.9137,0.9093,0.9078,0.9089,0.9087,0.9126,0.9131,0.9144,0.9202,0.9204,0.9158,0.916,0.9162,0.9163,0,0,0,0,0,0,0,0.8988,0.8996,0.9074,0.9054,0.9055,0.9052,0.9057,0.9096,0.911,0.9079,0.9078,0.9085,0.9126,0.914,0.9145,0.9205,0.9158,0.9161,0.9163,0.9165,0.9309,0.9311,0,0,0,0,0,0,0.8984,0.8993,0.9072,0.9075,0.9019,0.9055,0.9061,0.908,0.911,0.9113,0.9086,0.9084,0.9135,0.9141,0.9146,0.921,0.9162,0.9165,0.9167,0.9308,0.931,0.9312,0,0,0,0,0,0,0.8982,0.8991,0.907,0.9034,0.9044,0.9059,0.9081,0.9082,0.9096,0.9115,0.9117,0.9098,0.9134,0.9141,0.9186,0.9212,0.9167,0.917,0.9306,0.9308,0.9311,0.9338,0,0,0,0,0,0,0.8979,0.899,0.901,0.9034,0.9046,0.9109,0.9082,0.9084,0.9102,0.91,0.9126,0.9129,0.9133,0.9181,0.919,0.9216,0.9173,0.9304,0.9307,0.931,0.9335,0.9341,0.9346,0,0,0,0,0,0.8975,0.9016,0.9011,0.9021,0.9071,0.911,0.9117,0.9121,0.9104,0.9125,0.9136,0.9128,0.9208,0.9186,0.9196,0.9223,0.9302,0.9306,0.931,0.9332,0.934,0.9346,0,0,0,0,0,0,0.8994,0.9019,0.9014,0.9064,0.9085,0.9108,0.9133,0.9129,0.9155,0.9152,0.9156,0.9162,0.9208,0.922,0.9195,0.9276,0.9252,0.9258,0.9266,0.9274,0.9279,0.9276,0.9176,0,0,0,0,0,0.9004,0.9034,0.9054,0.9096,0.9107,0.9118,0.9136,0.9137,0.9159,0.9168,0.9183,0.9205,0.9235,0.9255,0.9284,0.9336,0.9342,0.936,0.9366,0.937,0.9376,0.9406,0.9414,0.9325,0.9324,0.9324,0,0,0.9025,0.9042,0.9061,0.91,0.9117,0.9148,0.9126,0.916,0.9183,0.9173,0.9217,0.9229,0.9254,0.9303,0.9326,0.9315,0.9402,0.9375,0.9379,0.9382,0.9411,0.9419,0.9427,0.9327,0.9327,0.9326,0,0,0.9079,0.9095,0.9132,0.9149,0.9175,0.9182,0.9191,0.9215,0.9222,0.9266,0.926,0.9288,0.9339,0.9357,0.9373,0.9435,0.9429,0.9445,0.9475,0.9504,0.9511,0.9518,0.9541,0.9549,0.945,0.945,0.945,0,0.9102,0.9149,0.9152,0.9187,0.9205,0.9197,0.9235,0.9251,0.9285,0.9298,0.9285,0.935,0.9366,0.942,0.9435,0.9448,0.9459,0.9442,0.951,0.9516,0.9522,0.9545,0.9553,0.9452,0.9451,0.9451,0.9451,0,0.9176,0.9209,0.9236,0.9269,0.9289,0.9326,0.9335,0.9355,0.9355,0.9364,0.9409,0.9428,0.9461,0.9474,0.9474,0.9528,0.9521,0.9509,0.9486,0.9533,0.9554,0.9562,0.9454,0.9454,0.9453,0.9453,0,0,0.9244,0.9278,0.9288,0.9303,0.9331,0.9357,0.9393,0.9425,0.9443,0.9466,0.9497,0.9541,0.9531,0.9549,0.9551,0.9576,0.9625,0.9561,0.9562,0.9573,0.9688,0.9697,0.9707,0.9621,0.9623,0.9624,0.9686,0,0.9302,0.9365,0.9369,0.9427,0.9458,0.9451,0.9483,0.9503,0.9513,0.9541,0.9551,0.9583,0.9566,0.9577,0.9602,0.9614,0.9649,0.961,0.9651,0.9652,0.9646,0.9718,0.9727,0.9785,0.9694,0.9696,0.9697,0,0.9377,0.9403,0.9464,0.9488,0.9501,0.953,0.956,0.9586,0.961,0.9615,0.9636,0.9634,0.9672,0.9647,0.97,0.9673,0.969,0.9699,0.9701,0.9706,0.9678,0.9725,0.9804,0.9813,0.9709,0.9708,0.9707,0,0.9422,0.9472,0.9515,0.9528,0.9557,0.9578,0.9591,0.9613,0.9632,0.9658,0.9671,0.9701,0.9718,0.9742,0.9749,0.973,0.9802,0.9777,0.9808,0.9808,0.9824,0.9823,0.9907,0.9833,0.9833,0.9833,0.9833,0,0.9486,0.9524,0.9536,0.9563,0.9605,0.9609,0.9651,0.9663,0.9683,0.9712,0.9708,0.9736,0.9743,0.9772,0.9777,0.9821,0.9828,0.9834,0.9835,0.9835,0.9834,0.9846,0.9843,0.9835,0.9835,0.9834,0.9834,0,0.9544,0.9553,0.96,0.9623,0.963,0.9661,0.9681,0.9707,0.9716,0.9753,0.9762,0.9776,0.981,0.982,0.986,0.9864,0.9915,0.9912,0.9908,0.9908,0.9938,0.9936,1.0034,1.0047,0.9964,0.9965,0.9966,0,0.9585,0.9614,0.964,0.966,0.9674,0.9705,0.9724,0.973,0.9751,0.978,0.9803,0.9836,0.9863,0.9918,0.9933,0.9964,0.9962,0.9995,0.9967,0.9966,0.9964,0.9962,0.9966,1.0,1.0001,1.0002,1.0002,0,0.9657,0.966,0.9688,0.9719,0.9742,0.9766,0.979,0.9806,0.9815,0.9838,0.9873,0.9894,0.9936,0.997,1.0001,1.0015,1.0011,1.0011,1.002,1.002,1.0016,1.002,0.9923,1.0009,1.0008,1.0008,1.0007,1.0007,0.9708,0.9733,0.9756,0.9788,0.9806,0.9828,0.9854,0.9866,0.9896,0.993,0.9931,0.997,0.9993,1.0035,1.0051,1.0081,1.0072,1.0084,1.0088,1.0091,1.0094,1.0011,1.0087,1.0087,1.0087,1.0087,1.0086,0,0.978,0.9795,0.9824,0.9857,0.9882,0.9875,0.9901,0.9922,0.9956,0.9978,1.0005,1.0046,1.0078,1.0095,1.0128,1.0149,1.0148,1.0158,1.0157,1.016,1.01,1.009,1.0158,1.0158,1.0158,1.0158,1.0158,1.0158,0.9821,0.9864,0.987,0.9923,0.9937,0.9975,0.999,1.001,1.0028,1.0074,1.0101,1.0112,1.0132,1.0166,1.0196,1.0201,1.0213,1.0224,1.0228,1.0171,1.0164,1.0157,1.0147,1.0227,1.0227,1.0285,1.0285,1.0286]},{"header":{"parameterUnit":"m.s-1","parameterCategory":1,"la1":30.2991,"la2":30.254,"lo1":-89.0895,"lo2":-89.0444,"dy":0.0017,"dx":0.0017,"nx":28,"ny":28,"refTime":"2023-07-27T03:00:00:Z","depth":0,"parameterNumber":3,"parameterNumberName":"V-component_of_WINDS"},"data":[0,0,0,0,0,0,0,0,0,0,0,0,0,0,0,0,0,0,0,0,0,0,0,0,0,0,0,0,0,0,0,0,0,0,0,0,0,0,0,0,0,0,0,0,0,0,0,0,0,0,0,0,0,0,0,0,0,0,-2.2411,-2.2412,0,-2.2476,-2.2477,-2.2478,-2.2469,-2.2467,-2.2466,-2.2465,-2.253,-2.2533,-2.2535,0,0,0,0,0,0,0,0,0,0,0,0,0,-2.2278,-2.2281,-2.2411,-2.2412,-2.2413,-2.2476,-2.2477,-2.2478,-2.2469,-2.2467,-2.2466,-2.2465,-2.2529,-2.2532,-2.2536,0,0,0,0,0,0,0,0,0,0,0,0,0,-2.2339,-2.2282,-2.2411,-2.2416,-2.2417,-2.2476,-2.2477,-2.2478,-2.2469,-2.2467,-2.2466,-2.2464,-2.2528,-2.2532,-2.2536,-2.2594,0,0,-2.2549,-2.255,0,0,0,0,0,0,0,0,-2.2335,-2.2344,-2.2415,-2.2416,-2.2417,-2.2463,-2.2454,-2.2517,-2.2469,-2.2449,-2.2465,-2.2464,-2.2509,-2.2514,-2.253,-2.2597,-2.2599,-2.2549,-2.2551,-2.2553,-2.2554,0,0,0,0,0,0,0,-2.2331,-2.2341,-2.2437,-2.2416,-2.2417,-2.2415,-2.2421,-2.2466,-2.2487,-2.2451,-2.245,-2.2458,-2.2509,-2.2526,-2.2532,-2.26,-2.2549,-2.2553,-2.2555,-2.2557,-2.2717,-2.2719,0,0,0,0,0,0,-2.2326,-2.2337,-2.2435,-2.2439,-2.2372,-2.2418,-2.2426,-2.245,-2.2487,-2.2491,-2.246,-2.2458,-2.252,-2.2527,-2.2534,-2.2603,-2.2553,-2.2557,-2.2559,-2.2715,-2.2718,-2.2719,0,0,0,0,0,0,-2.2323,-2.2335,-2.2432,-2.2388,-2.24,-2.2422,-2.2449,-2.2452,-2.2469,-2.2493,-2.2497,-2.2473,-2.2519,-2.2528,-2.2579,-2.2605,-2.2559,-2.2563,-2.2713,-2.2716,-2.2718,-2.2743,0,0,0,0,0,0,-2.2319,-2.2334,-2.2356,-2.2389,-2.2403,-2.2477,-2.2451,-2.2454,-2.2476,-2.2474,-2.2507,-2.2511,-2.2518,-2.2573,-2.2583,-2.261,-2.2566,-2.2711,-2.2714,-2.2718,-2.2739,-2.2746,-2.2751,0,0,0,0,0,-2.2315,-2.236,-2.2357,-2.2369,-2.2431,-2.2478,-2.2486,-2.2494,-2.2478,-2.25,-2.2516,-2.251,-2.2601,-2.2578,-2.2589,-2.2618,-2.2709,-2.2713,-2.2717,-2.2737,-2.2744,-2.2751,0,0,0,0,0,0,-2.2329,-2.2364,-2.2362,-2.2419,-2.2446,-2.2477,-2.2505,-2.2502,-2.2534,-2.2531,-2.2539,-2.2547,-2.2598,-2.2613,-2.2587,-2.2676,-2.2653,-2.2659,-2.2664,-2.2671,-2.2677,-2.2672,-2.2569,0,0,0,0,0,-2.2339,-2.2375,-2.2404,-2.2451,-2.2465,-2.2483,-2.2504,-2.2508,-2.2536,-2.2547,-2.2566,-2.2593,-2.2628,-2.265,-2.2684,-2.2742,-2.2749,-2.2767,-2.2773,-2.2778,-2.2783,-2.2815,-2.2823,-2.2733,-2.2733,-2.2733,0,0,-2.236,-2.2384,-2.2405,-2.2455,-2.2476,-2.2512,-2.2492,-2.2532,-2.2559,-2.2552,-2.2602,-2.2617,-2.2648,-2.2702,-2.2727,-2.2717,-2.281,-2.2783,-2.2787,-2.2789,-2.282,-2.2828,-2.2836,-2.2736,-2.2735,-2.2735,0,0,-2.2416,-2.2438,-2.248,-2.2502,-2.2535,-2.2546,-2.2556,-2.2588,-2.2598,-2.2648,-2.2644,-2.2676,-2.2736,-2.2758,-2.2777,-2.2842,-2.2837,-2.2853,-2.2883,-2.2913,-2.292,-2.2927,-2.2949,-2.2958,-2.2858,-2.2858,-2.2858,0,-2.2437,-2.2493,-2.2502,-2.2542,-2.2563,-2.2561,-2.2603,-2.2624,-2.2665,-2.268,-2.2668,-2.2743,-2.2763,-2.2823,-2.2839,-2.2854,-2.2866,-2.2848,-2.2919,-2.2925,-2.2931,-2.2953,-2.2962,-2.286,-2.2859,-2.2859,-2.2859,0,-2.2517,-2.2555,-2.2585,-2.2626,-2.2652,-2.2692,-2.2707,-2.2732,-2.2734,-2.2747,-2.2797,-2.2822,-2.286,-2.2875,-2.2877,-2.2935,-2.2927,-2.2917,-2.2894,-2.2941,-2.2962,-2.297,-2.2862,-2.2861,-2.2861,-2.2861,0,0,-2.2583,-2.2629,-2.264,-2.2659,-2.2695,-2.2724,-2.2765,-2.2803,-2.2824,-2.2853,-2.2887,-2.2938,-2.2929,-2.295,-2.2955,-2.2982,-2.3032,-2.2968,-2.2969,-2.2979,-2.3096,-2.3103,-2.3113,-2.3029,-2.3031,-2.3032,-2.3094,0,-2.2642,-2.2715,-2.2725,-2.2789,-2.2824,-2.2822,-2.2858,-2.2884,-2.2897,-2.2928,-2.2943,-2.2979,-2.2964,-2.2977,-2.3004,-2.302,-2.3055,-2.3016,-2.306,-2.3061,-2.3052,-2.3124,-2.3131,-2.3188,-2.3102,-2.3103,-2.3104,0,-2.2721,-2.2753,-2.282,-2.2852,-2.2867,-2.2899,-2.2935,-2.2965,-2.2994,-2.3002,-2.3027,-2.3028,-2.307,-2.3046,-2.3104,-2.3077,-2.3096,-2.3106,-2.3109,-2.3112,-2.3085,-2.3129,-2.3207,-2.3215,-2.3117,-2.3116,-2.3115,0,-2.2761,-2.2821,-2.287,-2.2886,-2.2924,-2.2946,-2.2963,-2.2991,-2.3013,-2.3044,-2.3059,-2.3094,-2.3113,-2.3141,-2.3152,-2.3133,-2.3209,-2.3186,-2.3216,-2.3215,-2.3231,-2.3229,-2.3312,-2.3244,-2.3244,-2.3244,-2.3244,0,-2.2826,-2.2867,-2.2888,-2.2918,-2.2964,-2.2975,-2.302,-2.3036,-2.3061,-2.3094,-2.3094,-2.3125,-2.3138,-2.317,-2.3179,-2.3225,-2.3234,-2.3241,-2.3243,-2.324,-2.3239,-2.3252,-2.3248,-2.3246,-2.3246,-2.3245,-2.3245,0,-2.2879,-2.2895,-2.2947,-2.2979,-2.2988,-2.3021,-2.3048,-2.3077,-2.309,-2.3131,-2.3141,-2.3162,-2.32,-2.3214,-2.326,-2.3267,-2.332,-2.3318,-2.331,-2.331,-2.3339,-2.3336,-2.3432,-2.3445,-2.3369,-2.337,-2.3371,0,-2.2918,-2.295,-2.2986,-2.3008,-2.3026,-2.3061,-2.3084,-2.3096,-2.312,-2.3156,-2.318,-2.3218,-2.3249,-2.331,-2.3329,-2.3364,-2.3364,-2.3395,-2.3369,-2.3366,-2.3363,-2.3361,-2.3364,-2.3399,-2.34,-2.3401,-2.3401,0,-2.2987,-2.2993,-2.3027,-2.3063,-2.3091,-2.312,-2.3148,-2.3166,-2.3182,-2.3208,-2.3248,-2.3272,-2.3319,-2.3357,-2.3393,-2.341,-2.3408,-2.341,-2.3418,-2.3416,-2.3409,-2.3413,-2.3322,-2.3407,-2.3406,-2.3406,-2.3406,-2.3405,-2.3034,-2.3062,-2.3092,-2.3129,-2.3152,-2.3178,-2.3206,-2.3224,-2.3257,-2.3297,-2.3302,-2.3344,-2.3372,-2.3421,-2.344,-2.3473,-2.3464,-2.3477,-2.348,-2.3483,-2.3484,-2.3405,-2.3479,-2.3479,-2.3479,-2.3479,-2.3479,0,-2.3102,-2.3121,-2.3155,-2.3195,-2.3224,-2.3221,-2.3252,-2.3276,-2.3313,-2.3341,-2.3371,-2.3416,-2.3453,-2.3475,-2.3512,-2.3534,-2.3534,-2.3543,-2.3541,-2.3545,-2.349,-2.3479,-2.3542,-2.3542,-2.3542,-2.3542,-2.3542,-2.3542,-2.314,-2.3188,-2.3198,-2.3257,-2.3276,-2.3317,-2.3335,-2.3359,-2.3381,-2.3432,-2.3462,-2.3477,-2.3502,-2.3541,-2.3574,-2.358,-2.3593,-2.3603,-2.3607,-2.3555,-2.3549,-2.3543,-2.3532,-2.3606,-2.3606,-2.3659,-2.366,-2.366]}]]